[[{"header":{"parameterUnit":"m.s-1","parameterCategory":1,"la1":30.2991,"la2":30.254,"lo1":-89.0895,"lo2":-89.0444,"dy":0.0017,"dx":0.0017,"nx":28,"ny":28,"refTime":"2023-08-13T09:00:00:Z","depth":0,"parameterNumber":2,"parameterNumberName":"U-component_of_WINDS"},"data":[0,0,0,0,0,0,0,0,0,0,0,0,0,0,0,0,0,0,0,0,0,0,0,0,0,0,0,0,0,0,0,0,0,0,0,0,0,0,0,0,0,0,0,0,0,0,0,0,0,0,0,0,0,0,0,0,0,0,5.5858,5.5859,0,5.5967,5.5968,5.5969,5.5867,5.5863,5.5859,5.5855,5.5966,5.5972,5.5979,0,0,0,0,0,0,0,0,0,0,0,0,0,5.5559,5.5565,5.5858,5.5859,5.586,5.5966,5.5968,5.5969,5.5868,5.5863,5.5858,5.5853,5.5963,5.5971,5.5979,0,0,0,0,0,0,0,0,0,0,0,0,0,5.5681,5.5567,5.5857,5.5823,5.5821,5.5966,5.5968,5.597,5.5869,5.5863,5.5857,5.5851,5.5961,5.5971,5.5981,5.6166,0,0,5.6011,5.6016,0,0,0,0,0,0,0,0,5.5674,5.5692,5.5826,5.5825,5.5823,5.5897,5.5903,5.6035,5.5871,5.5851,5.5855,5.5848,5.5948,5.5958,5.5992,5.6171,5.6175,5.6012,5.6018,5.6023,5.6026,0,0,0,0,0,0,0,5.5666,5.5686,5.5901,5.5828,5.5827,5.5801,5.5811,5.5928,5.5932,5.5852,5.5845,5.5859,5.5946,5.5983,5.5994,5.6177,5.6012,5.6021,5.6027,5.6031,5.6509,5.6515,0,0,0,0,0,0,5.5661,5.568,5.5897,5.5904,5.5732,5.5811,5.5823,5.588,5.5931,5.5933,5.5864,5.5854,5.5969,5.5982,5.5998,5.6215,5.6023,5.6032,5.6038,5.6502,5.651,5.6517,0,0,0,0,0,0,5.5655,5.5681,5.5893,5.579,5.5815,5.5823,5.5887,5.5885,5.5922,5.594,5.594,5.5902,5.5964,5.5983,5.6124,5.6217,5.6037,5.6046,5.6494,5.6505,5.6514,5.6652,0,0,0,0,0,0,5.5647,5.568,5.5751,5.5793,5.5821,5.6019,5.5893,5.5892,5.594,5.5927,5.5975,5.5977,5.5961,5.6109,5.6134,5.6228,5.6054,5.6486,5.6499,5.6511,5.6639,5.6665,5.6688,0,0,0,0,0,5.5637,5.5786,5.5755,5.5782,5.591,5.6024,5.604,5.6019,5.5948,5.6018,5.603,5.5975,5.6204,5.6124,5.6151,5.625,5.648,5.6495,5.651,5.6628,5.666,5.6687,0,0,0,0,0,0,5.5756,5.5791,5.5757,5.5925,5.5972,5.6007,5.6095,5.6054,5.6123,5.6108,5.6079,5.609,5.6238,5.6258,5.617,5.643,5.633,5.6351,5.6411,5.6441,5.6465,5.6456,5.6062,0,0,0,0,0,5.5802,5.5892,5.5918,5.6063,5.6088,5.6088,5.6137,5.6117,5.6164,5.6184,5.6205,5.6253,5.6335,5.639,5.6466,5.6642,5.6649,5.6723,5.6747,5.6767,5.6785,5.6876,5.6908,5.6566,5.6566,5.6566,0,0,5.5897,5.5927,5.5986,5.6088,5.6122,5.6214,5.6106,5.6209,5.6277,5.6199,5.6332,5.635,5.6401,5.6559,5.663,5.658,5.6881,5.6786,5.6802,5.6809,5.6894,5.6927,5.6955,5.6576,5.6575,5.6573,0,0,5.6117,5.6151,5.6274,5.631,5.6364,5.6362,5.6392,5.6433,5.6441,5.6574,5.6517,5.6597,5.674,5.6778,5.6816,5.7049,5.7,5.7075,5.7202,5.7291,5.7318,5.7341,5.7421,5.7451,5.7093,5.7094,5.7094,0,5.6229,5.6367,5.6342,5.6449,5.6494,5.6428,5.6552,5.6588,5.6664,5.6696,5.664,5.6815,5.6846,5.701,5.7066,5.7101,5.7131,5.7068,5.7316,5.7339,5.7361,5.7437,5.7467,5.7102,5.7101,5.71,5.7099,0,5.65,5.6597,5.669,5.6763,5.6819,5.6934,5.6925,5.6985,5.6959,5.6963,5.7098,5.7132,5.7213,5.7251,5.7228,5.7412,5.7379,5.732,5.7219,5.7402,5.7473,5.7502,5.7114,5.7111,5.7108,5.7106,0,0,5.6798,5.6856,5.689,5.6922,5.6975,5.7049,5.716,5.7239,5.7288,5.7343,5.7433,5.7555,5.75,5.7543,5.7523,5.7602,5.778,5.7533,5.7534,5.7575,5.7981,5.8023,5.8057,5.7749,5.7755,5.7759,5.7975,0,5.7018,5.721,5.7191,5.7374,5.7461,5.7399,5.7495,5.7537,5.7544,5.7617,5.7624,5.771,5.7633,5.7658,5.7733,5.7743,5.7861,5.7727,5.7831,5.7835,5.7817,5.8094,5.8139,5.8342,5.8003,5.8008,5.8011,0,5.73,5.7363,5.7555,5.7592,5.7628,5.7715,5.7784,5.7857,5.7902,5.7901,5.7949,5.7915,5.8024,5.7922,5.8071,5.798,5.8022,5.8033,5.804,5.8046,5.7932,5.8105,5.8406,5.8435,5.8055,5.8052,5.8049,0,5.7494,5.7628,5.7759,5.7788,5.7836,5.7898,5.792,5.796,5.8008,5.8069,5.8099,5.8172,5.8211,5.8267,5.8253,5.8181,5.8404,5.8302,5.8404,5.8404,5.8452,5.8448,5.876,5.8484,5.8483,5.8483,5.8482,0,5.774,5.7859,5.7846,5.7926,5.8057,5.8032,5.8162,5.8176,5.8212,5.8292,5.8244,5.8321,5.8298,5.8373,5.8363,5.8486,5.8505,5.8505,5.85,5.8508,5.8507,5.8532,5.8517,5.8491,5.8489,5.8487,5.8486,0,5.7979,5.7975,5.8113,5.8147,5.8158,5.8252,5.828,5.8354,5.8357,5.8459,5.8482,5.8485,5.8571,5.8562,5.8659,5.8652,5.8802,5.8783,5.8787,5.8781,5.8882,5.8872,5.9219,5.9262,5.8961,5.8964,5.8966,0,5.8135,5.8224,5.8267,5.8317,5.8344,5.8427,5.8475,5.8454,5.8506,5.8564,5.8631,5.8712,5.8775,5.8914,5.8925,5.8997,5.8977,5.9093,5.8987,5.8991,5.8974,5.8968,5.8975,5.9113,5.9117,5.912,5.9122,0,5.8411,5.8404,5.8476,5.8547,5.8605,5.866,5.871,5.8754,5.8738,5.8798,5.8885,5.8934,5.9031,5.9111,5.918,5.9201,5.9158,5.9155,5.9182,5.9189,5.9186,5.9186,5.884,5.9147,5.9144,5.9143,5.9141,5.914,5.861,5.8686,5.8727,5.8807,5.8843,5.889,5.896,5.8971,5.9043,5.912,5.9104,5.9201,5.9241,5.9329,5.9357,5.9431,5.9389,5.9429,5.9438,5.9447,5.9457,5.9177,5.9444,5.9443,5.9443,5.9442,5.9442,0,5.8881,5.8904,5.8978,5.9049,5.9112,5.9067,5.9119,5.9174,5.926,5.9302,5.9365,5.9463,5.9539,5.9555,5.9628,5.9684,5.9666,5.9704,5.9698,5.9703,5.9493,5.9461,5.9717,5.9717,5.9717,5.9717,5.9717,5.9717,5.9029,5.9153,5.9151,5.9291,5.9313,5.9407,5.944,5.9482,5.9515,5.9627,5.969,5.97,5.9731,5.9805,5.9873,5.9875,5.9903,5.9948,5.9942,5.9746,5.9718,5.9692,5.9661,5.9955,5.9955,6.0145,6.0147,6.0148]},{"header":{"parameterUnit":"m.s-1","parameterCategory":1,"la1":30.2991,"la2":30.254,"lo1":-89.0895,"lo2":-89.0444,"dy":0.0017,"dx":0.0017,"nx":28,"ny":28,"refTime":"2023-08-13T09:00:00:Z","depth":0,"parameterNumber":3,"parameterNumberName":"V-component_of_WINDS"},"data":[0,0,0,0,0,0,0,0,0,0,0,0,0,0,0,0,0,0,0,0,0,0,0,0,0,0,0,0,0,0,0,0,0,0,0,0,0,0,0,0,0,0,0,0,0,0,0,0,0,0,0,0,0,0,0,0,0,0,1.9166,1.9168,0,1.9333,1.9334,1.9336,1.9375,1.9374,1.9373,1.9372,1.9544,1.955,1.9555,0,0,0,0,0,0,0,0,0,0,0,0,0,1.8882,1.8887,1.9166,1.9168,1.917,1.9332,1.9335,1.9337,1.9375,1.9374,1.9372,1.9371,1.9542,1.9549,1.9556,0,0,0,0,0,0,0,0,0,0,0,0,0,1.9023,1.8889,1.9166,1.9209,1.9214,1.9332,1.9335,1.9337,1.9375,1.9374,1.9372,1.937,1.954,1.9548,1.9557,1.9644,0,0,1.9583,1.9586,0,0,0,0,0,0,0,0,1.9015,1.9033,1.92,1.9206,1.9212,1.9331,1.9298,1.944,1.9376,1.9314,1.9372,1.937,1.9475,1.9488,1.9524,1.9652,1.9659,1.9583,1.9588,1.9592,1.9594,0,0,0,0,0,0,0,1.9005,1.9026,1.9232,1.9203,1.921,1.922,1.9238,1.9325,1.9402,1.932,1.9323,1.9342,1.9478,1.9515,1.9528,1.9662,1.9583,1.9591,1.9596,1.9599,1.9868,1.987,0,0,0,0,0,0,1.8987,1.9018,1.9227,1.9237,1.9107,1.9227,1.9247,1.9295,1.9401,1.9416,1.9343,1.9343,1.9502,1.9518,1.9534,1.9643,1.9592,1.96,1.9605,1.9866,1.9869,1.9871,0,0,0,0,0,0,1.8981,1.9006,1.922,1.9128,1.9156,1.9233,1.9287,1.9299,1.9337,1.9419,1.9433,1.9367,1.9501,1.9522,1.9616,1.9649,1.9604,1.9612,1.9864,1.9867,1.987,1.986,0,0,0,0,0,0,1.8973,1.9003,1.9037,1.9129,1.9161,1.9298,1.9289,1.9304,1.9351,1.9352,1.9446,1.9459,1.9501,1.9603,1.9624,1.966,1.9618,1.9861,1.9865,1.9869,1.9858,1.9863,1.9867,0,0,0,0,0,1.8963,1.9028,1.9038,1.9063,1.9205,1.93,1.9319,1.9365,1.9353,1.9388,1.9441,1.9456,1.9642,1.9612,1.9636,1.9675,1.986,1.9864,1.9869,1.9856,1.9862,1.9866,0,0,0,0,0,0,1.8939,1.9041,1.9054,1.9151,1.9216,1.9307,1.9352,1.937,1.9441,1.9439,1.9494,1.9515,1.9605,1.965,1.9615,1.9765,1.975,1.976,1.9732,1.9738,1.9743,1.973,1.9625,0,0,0,0,0,1.8945,1.9014,1.9099,1.9177,1.9209,1.9274,1.9318,1.9348,1.9418,1.9447,1.9506,1.9575,1.9648,1.9696,1.9768,1.9864,1.9885,1.9903,1.9907,1.991,1.9918,1.9972,1.9981,1.9886,1.9886,1.9886,0,0,1.8959,1.9023,1.9063,1.9174,1.9228,1.9298,1.9298,1.9372,1.9425,1.9458,1.955,1.9596,1.9676,1.9771,1.9816,1.9811,1.9949,1.9916,1.9918,1.9925,1.9977,1.9986,1.9994,1.989,1.9889,1.9888,0,0,1.9019,1.9074,1.9145,1.9199,1.9281,1.9324,1.934,1.9428,1.9459,1.9552,1.9578,1.9642,1.9768,1.9823,1.9868,1.9947,1.9964,1.9969,1.9992,2.0044,2.0051,2.0058,2.0086,2.0096,1.9977,1.9977,1.9977,0,1.9026,1.9132,1.9179,1.9252,1.9299,1.9331,1.9403,1.9453,1.9555,1.9588,1.958,1.9738,1.9794,1.9902,1.9921,1.9957,1.9977,1.9959,2.0046,2.0054,2.0061,2.0088,2.0099,1.9977,1.9977,1.9977,1.9977,0,1.9136,1.9209,1.9256,1.9352,1.9405,1.9477,1.9535,1.9583,1.9607,1.9651,1.9745,1.9813,1.9899,1.9927,1.9952,2.0039,2.0033,2.0035,2.0022,2.0069,2.0096,2.0107,1.9977,1.9977,1.9977,1.9977,0,0,1.9187,1.9307,1.9324,1.9367,1.9459,1.9517,1.959,1.9674,1.9714,1.9783,1.9845,1.995,1.9952,2.0003,2.0035,2.008,2.0138,2.0077,2.008,2.0086,2.0237,2.0234,2.0246,2.0149,2.0152,2.0153,2.023,0,1.9259,1.939,1.9433,1.9542,1.961,1.9641,1.9705,1.9768,1.981,1.9874,1.9922,1.9995,1.9993,2.0023,2.0069,2.0121,2.0169,2.0116,2.0209,2.0211,2.0188,2.026,2.0258,2.0327,2.0241,2.0243,2.0244,0,1.936,1.9429,1.9544,1.9627,1.9657,1.9713,1.9793,1.9854,1.9926,1.9954,2.0009,2.0037,2.0115,2.0096,2.0204,2.0167,2.0207,2.0238,2.0242,2.0253,2.0231,2.0273,2.035,2.0361,2.0261,2.026,2.0258,0,1.9386,1.9507,1.9592,1.9629,1.9727,1.9766,1.9809,1.9879,1.9926,1.9996,2.0027,2.0105,2.0148,2.0207,2.0256,2.0238,2.0359,2.0344,2.0384,2.0382,2.0408,2.0406,2.0494,2.0434,2.0434,2.0433,2.0433,0,1.9461,1.953,1.9605,1.9657,1.9735,1.9784,1.9861,1.9906,1.9968,2.0029,2.0061,2.0118,2.0178,2.0242,2.0281,2.0363,2.0383,2.0407,2.0417,2.0405,2.0401,2.0432,2.0428,2.0436,2.0436,2.0435,2.0435,0,1.9503,1.9556,1.965,1.9735,1.9758,1.9812,1.9885,1.9937,1.998,2.0057,2.0078,2.0146,2.0223,2.0277,2.0377,2.0403,2.0492,2.0501,2.0468,2.0472,2.0509,2.0504,2.0619,2.0636,2.0565,2.0565,2.0566,0,1.9548,1.9602,1.9692,1.9735,1.9778,1.9847,1.9895,1.9945,1.9993,2.0079,2.012,2.02,2.0266,2.0389,2.0448,2.0524,2.0535,2.057,2.0547,2.0533,2.0535,2.0532,2.0537,2.0573,2.0574,2.0574,2.0575,0,1.9622,1.9645,1.9712,1.9788,1.9844,1.9907,1.997,2.0004,2.0065,2.0118,2.0197,2.0248,2.035,2.0429,2.051,2.0555,2.0575,2.0581,2.0595,2.0583,2.0561,2.0573,2.0477,2.0579,2.0578,2.0578,2.0578,2.0578,1.9667,1.9716,1.9787,1.986,1.9913,1.9971,2.0023,2.0072,2.0139,2.0225,2.0251,2.0333,2.0403,2.0515,2.0561,2.0626,2.0623,2.0642,2.0647,2.0651,2.0651,2.055,2.0641,2.0641,2.0641,2.0641,2.0641,0,1.9742,1.9789,1.9856,1.9943,2.0,2.0013,2.0083,2.0131,2.0203,2.0266,2.0331,2.0421,2.0498,2.0561,2.064,2.068,2.0691,2.0699,2.0696,2.0706,2.0649,2.0629,2.0688,2.0688,2.0688,2.0688,2.0688,2.0688,1.9788,1.9871,1.9902,2.0012,2.0058,2.0138,2.0177,2.0231,2.0281,2.0381,2.0444,2.0485,2.0549,2.0632,2.0702,2.0719,2.0746,2.0752,2.0771,2.0716,2.071,2.0705,2.0687,2.0757,2.0758,2.0823,2.0823,2.0824]}]]